EW3084 Weather Reports


time (UTC)temp
C
wind
direction
speed
KPH
gust
KPH
rain 1hr
cm
rain 24hr
cm
rain mn
cm
humidity
%
barometer
mb
20260506025619 -1 357 0.0 1.6 0.00 0.00 0.00 86
20260506024503 -1 0 0.0 0.0 0.00 0.00 0.00 85
20260506023603 -1 0 0.0 0.0 0.00 0.00 0.00 85
20260506022703 -1 0 0.0 0.0 0.00 0.00 0.00 85
20260506021803 -1 0 0.0 0.0 0.00 0.00 0.00 85
20260506020903 -1 0 0.0 0.0 0.00 0.00 0.00 86
20260506020003 -1 303 0.0 1.6 0.00 0.00 0.00 85
20260506015403 -1 329 0.0 3.2 0.00 0.00 0.00 86
20260506014503 -1 331 0.0 3.2 0.00 0.00 0.00 86
20260506013603 -1 0 0.0 0.0 0.00 0.00 0.00 86
20260506012703 -1 0 0.0 0.0 0.00 0.00 0.00 85
20260506011803 -1 0 0.0 0.0 0.00 0.00 0.00 85
20260506010903 -1 0 0.0 0.0 0.00 0.00 0.00 85
20260506010003 -1 0 0.0 0.0 0.00 0.00 0.00 84
20260506005618 -1 0 0.0 0.0 0.00 0.00 0.00 83
20260506004503 -1 0 0.0 0.0 0.00 0.00 0.00 83
20260506003603 -1 0 0.0 0.0 0.00 0.00 0.00 83
20260506002703 0 351 0.0 1.6 0.00 0.00 0.00 83
20260506001803 0 351 0.0 1.6 0.00 0.00 0.00 83
20260506000903 0 349 0.0 1.6 0.00 0.00 0.00 83
20260506000003 -1 347 0.0 4.8 0.00 0.00 0.00 82
20260505235403 -1 344 0.0 3.2 0.00 0.00 0.00 81
20260505234503 -1 0 0.0 0.0 0.00 0.00 0.00 79
20260505233603 -1 356 0.0 1.6 0.00 0.00 0.00 78
20260505232916 -1 0 0.0 0.0 0.00 0.00 0.00 78
20260505231803 0 0 0.0 0.0 0.00 0.00 0.00 77
20260505230903 0 0 0.0 0.0 0.00 0.00 0.00 76
20260505230218 0 356 0.0 1.6 0.00 0.00 0.00 76
20260505225403 0 356 0.0 1.6 0.00 0.00 0.00 75
20260505224503 0 356 0.0 1.6 0.00 0.00 0.00 74
20260505223603 1 0 0.0 0.0 0.00 0.00 0.00 72
20260505222916 1 0 0.0 0.0 0.00 0.00 0.00 71
20260505221803 1 355 0.0 1.6 0.00 0.00 0.00 70
20260505221118 1 358 0.0 3.2 0.00 0.00 0.00 70
20260505220003 1 0 0.0 0.0 0.00 0.00 0.00 67
20260505215403 1 0 0.0 0.0 0.00 0.00 0.00 66
20260505214503 1 0 0.0 0.0 0.00 0.00 0.00 64
20260505213603 1 0 0.0 0.0 0.00 0.00 0.00 64
20260505212703 1 0 0.0 0.0 0.00 0.00 0.00 61
20260505211803 1 0 0.0 0.0 0.00 0.00 0.00 60
20260505210903 2 0 0.0 0.0 0.00 0.00 0.00 59
20260505210217 2 0 0.0 0.0 0.00 0.00 0.00 57
20260505205403 3 0 0.0 0.0 0.00 0.00 0.00 55
20260505204503 3 359 0.0 1.6 0.00 0.00 0.00 49
20260505203819 3 0 0.0 0.0 0.00 0.00 0.00 48
20260505202703 3 358 0.0 3.2 0.00 0.00 0.00 52
20260505201803 3 0 0.0 0.0 0.00 0.00 0.00 53
20260505200903 3 356 0.0 1.6 0.00 0.00 0.00 54
20260505200217 4 356 0.0 1.6 0.00 0.00 0.00 54
20260505195403 4 358 0.0 4.8 0.00 0.00 0.00 51
20260505194503 4 357 0.0 4.8 0.00 0.00 0.00 52
20260505193603 5 358 0.0 4.8 0.00 0.00 0.00 54
20260505192703 5 315 0.0 3.2 0.00 0.00 0.00 52
20260505191803 5 294 0.0 1.6 0.00 0.00 0.00 49
20260505190903 5 294 0.0 1.6 0.00 0.00 0.00 49
20260505190003 6 298 0.0 4.8 0.00 0.00 0.00 45
20260505185616 6 286 1.6 4.8 0.00 0.00 0.00 44
20260505184503 6 287 1.6 8.0 0.00 0.00 0.00 42
20260505183603 6 359 0.0 3.2 0.00 0.00 0.00 47
20260505182703 7 309 1.6 6.4 0.00 0.00 0.00 43
20260505181803 7 280 4.8 16.1 0.00 0.00 0.00 40
20260505180903 7 275 6.4 14.5 0.00 0.00 0.00 39
20260505180003 8 287 4.8 9.7 0.00 0.00 0.00 36
20260505175403 8 287 4.8 9.7 0.00 0.00 0.00 35
20260505174503 8 280 4.8 8.0 0.00 0.00 0.00 35
20260505173603 8 276 6.4 12.9 0.00 0.00 0.00 34
20260505172703 8 274 4.8 14.5 0.00 0.00 0.00 35
20260505171803 8 277 8.0 20.9 0.00 0.00 0.00 37
20260505170903 8 262 6.4 17.7 0.00 0.00 0.00 39
20260505170003 8 273 4.8 16.1 0.00 0.00 0.00 40
20260505165403 8 269 3.2 9.7 0.00 0.00 0.00 40
20260505164718 7 269 3.2 8.0 0.00 0.00 0.00 41
20260505163603 7 274 4.8 17.7 0.00 0.00 0.00 40
20260505162703 7 279 6.4 17.7 0.00 0.00 0.00 40
20260505162016 7 276 8.0 19.3 0.00 0.00 0.00 39
20260505160903 7 280 11.3 25.7 0.00 0.00 0.00 38
20260505152917 9 306 4.8 14.5 0.00 0.00 0.00 33
20260505151803 8 313 4.8 11.3 0.00 0.00 0.00 38
20260505150903 8 304 4.8 16.1 0.00 0.03 0.00 37
20260505124503 8 280 9.7 24.1 0.00 0.08 0.00 30
20260505123816 8 297 6.4 22.5 0.00 0.08 0.00 33
20260505122703 8 292 11.3 22.5 0.00 0.08 0.00 28
20260505121803 8 295 9.7 20.9 0.00 0.08 0.00 34
20260505121118 8 294 9.7 27.4 0.00 0.08 0.00 33
20260505120004 8 284 12.9 24.1 0.00 0.08 0.00 30
20260505115617 8 279 14.5 27.4 0.00 0.08 0.00 31
20260505114717 8 291 9.7 27.4 0.00 0.08 0.00 33
20260505113603 8 285 9.7 22.5 0.00 0.08 0.00 32
20260505112703 8 286 9.7 22.5 0.00 0.08 0.00 35
20260505111803 8 293 12.9 24.1 0.00 0.08 0.00 36
20260505110903 8 291 11.3 20.9 0.00 0.08 0.00 35
20260505101803 7 289 11.3 24.1 0.00 0.08 0.00 39
20260505100903 8 301 9.7 22.5 0.00 0.08 0.00 35
20260505100003 8 293 12.9 27.4 0.00 0.08 0.00 36
20260505095403 8 292 8.0 25.7 0.00 0.08 0.00 37
20260505094503 8 282 8.0 19.3 0.00 0.08 0.00 38
20260505093603 7 288 9.7 22.5 0.00 0.08 0.00 38
20260505092703 7 288 9.7 32.2 0.00 0.08 0.00 41
20260505091803 7 289 9.7 27.4 0.00 0.08 0.00 41
20260505091117 8 297 9.7 27.4 0.00 0.08 0.00 41
20260505090003 7 294 11.3 25.7 0.00 0.08 0.00 40
20260505085403 7 288 12.9 22.5 0.00 0.08 0.00 40
20260505084503 8 292 9.7 19.3 0.00 0.08 0.00 40
20260505083603 7 292 12.9 22.5 0.00 0.08 0.00 43
20260505082703 7 286 9.7 20.9 0.00 0.08 0.00 44
20260505081803 7 311 11.3 25.7 0.00 0.08 0.00 43
20260505080903 7 315 9.7 22.5 0.00 0.08 0.00 47
20260505080003 7 295 12.9 22.5 0.00 0.08 0.00 47
20260505075403 7 300 11.3 27.4 0.00 0.08 0.00 45
20260505074503 7 297 9.7 27.4 0.00 0.08 0.00 47
20260505073603 7 318 8.0 20.9 0.00 0.08 0.00 48
20260505072918 6 295 9.7 19.3 0.00 0.08 0.00 47
20260505071803 6 293 8.0 22.5 0.00 0.08 0.00 49
20260505070903 6 319 3.2 9.7 0.00 0.08 0.00 56
20260505070003 5 290 6.4 17.7 0.00 0.08 0.00 58
20260505065403 5 288 4.8 17.7 0.00 0.08 0.00 59
20260505064503 5 339 1.6 8.0 0.00 0.08 0.00 60
20260505063603 5 298 4.8 14.5 0.00 0.08 0.00 61
20260505062703 5 327 4.8 14.5 0.00 0.08 0.00 61
20260505062017 5 329 3.2 16.1 0.00 0.08 0.00 63
20260505060903 5 310 3.2 16.1 0.00 0.08 0.00 65
20260505060003 4 314 1.6 9.7 0.00 0.08 0.00 68
20260505055403 4 342 1.6 8.0 0.00 0.08 0.00 70
20260505054503 4 311 0.0 8.0 0.00 0.08 0.00 72
20260505053603 4 327 0.0 3.2 0.00 0.08 0.00 73
20260505052703 3 326 1.6 9.7 0.00 0.08 0.00 72
20260505051803 3 324 1.6 8.0 0.00 0.08 0.00 76
20260505050903 3 227 0.0 4.8 0.00 0.08 0.00 78
20260505050219 3 0 0.0 0.0 0.00 0.08 0.00 79
20260505040903 2 30 0.0 1.6 0.00 0.08 0.00 79
20260505040003 2 269 0.0 1.6 0.00 0.08 0.00 79
20260505035403 2 263 0.0 3.2 0.00 0.08 0.00 78
20260505034503 2 261 0.0 3.2 0.00 0.08 0.00 78
20260505033603 2 274 1.6 4.8 0.00 0.08 0.00 78
20260505032703 2 290 0.0 3.2 0.00 0.08 0.00 79
20260505031803 2 290 1.6 4.8 0.00 0.08 0.00 78
20260505030903 2 286 1.6 8.0 0.00 0.08 0.00 78
20260505030003 3 300 1.6 4.8 0.00 0.08 0.00 78